When you browse on this site, cookies collect data to enhance your experience and personalize the content and advertising you see.
Visit our Privacy Policy to learn more. By continuing to use the site, you agree to this use of cookies and data.
  • Em Portugal
  • Lista de países
  • Para 7 dias
  • Temperatura da água
  • Mapas de satélite
  • Mapa do tempo
  • Widgets de tempo
  • user-avatar
    Iniciar Sessão

    Previsão horária em Lekihino

    Hoje, 21 Abril, Domingo

    Tempo Temperatura Precipitação Vento Pressão Humidade
    00:00 +5°C° 0.2 mm 3 m/s 762 mmHg 66%
    01:00 +4°C° 0.2 mm 3 m/s 762 mmHg 70%
    02:00 +5°C° 0 mm 2 m/s 762 mmHg 81%
    03:00 +3°C° 0.1 mm 3 m/s 762 mmHg 79%
    04:00 +3°C° 0.1 mm 3 m/s 762 mmHg 78%
    05:00 +3°C° 0.1 mm 3 m/s 762 mmHg 77%
    06:00 +4°C° 0 mm 3 m/s 762 mmHg 73%
    07:00 +5°C° 0 mm 3 m/s 763 mmHg 69%
    08:00 +7°C° 0 mm 3 m/s 763 mmHg 62%
    09:00 +9°C° 0 mm 3 m/s 763 mmHg 56%
    10:00 +10°C° 0 mm 3 m/s 763 mmHg 49%
    11:00 +12°C° 0 mm 3 m/s 763 mmHg 43%
    12:00 +13°C° 0 mm 3 m/s 763 mmHg 40%
    13:00 +13°C° 0 mm 3 m/s 763 mmHg 38%
    14:00 +14°C° 0 mm 3 m/s 763 mmHg 35%
    15:00 +14°C° 0 mm 3 m/s 763 mmHg 36%
    16:00 +14°C° 0 mm 3 m/s 763 mmHg 36%
    17:00 +15°C° 0 mm 2 m/s 763 mmHg 37%
    18:00 +13°C° 0 mm 2 m/s 763 mmHg 44%
    19:00 +12°C° 0 mm 2 m/s 763 mmHg 51%
    20:00 +9°C° 0 mm 2 m/s 763 mmHg 58%
    21:00 +8°C° 0 mm 2 m/s 763 mmHg 61%
    22:00 +8°C° 0 mm 2 m/s 764 mmHg 64%
    23:00 +7°C° 0 mm 2 m/s 764 mmHg 67%

    Amanhã, 22 Abril, Segunda-feira

    Tempo Temperatura Precipitação Vento Pressão Humidade
    00:00 +8°C° 0 mm 1 m/s 764 mmHg 69%
    01:00 +7°C° 0 mm 1 m/s 764 mmHg 71%
    02:00 +7°C° 0 mm 1 m/s 764 mmHg 73%
    03:00 +7°C° 0 mm 1 m/s 765 mmHg 75%
    04:00 +7°C° 0 mm 1 m/s 765 mmHg 77%
    05:00 +6°C° 0 mm 1 m/s 765 mmHg 78%
    06:00 +8°C° 0 mm 1 m/s 765 mmHg 71%
    07:00 +10°C° 0 mm 1 m/s 765 mmHg 64%
    08:00 +13°C° 0 mm 1 m/s 765 mmHg 57%
    09:00 +14°C° 0 mm 1 m/s 765 mmHg 50%
    10:00 +16°C° 0 mm 2 m/s 766 mmHg 44%
    11:00 +18°C° 0 mm 2 m/s 766 mmHg 37%
    12:00 +18°C° 0 mm 2 m/s 766 mmHg 35%
    13:00 +19°C° 0 mm 2 m/s 765 mmHg 33%
    14:00 +19°C° 0 mm 2 m/s 765 mmHg 31%
    15:00 +19°C° 0 mm 2 m/s 765 mmHg 33%
    16:00 +19°C° 0 mm 2 m/s 765 mmHg 34%
    17:00 +18°C° 0 mm 2 m/s 765 mmHg 36%
    18:00 +16°C° 0 mm 2 m/s 765 mmHg 43%
    19:00 +14°C° 0 mm 2 m/s 765 mmHg 49%
    20:00 +13°C° 0 mm 2 m/s 765 mmHg 56%
    21:00 +12°C° 0 mm 2 m/s 766 mmHg 58%
    22:00 +10°C° 0 mm 2 m/s 766 mmHg 59%
    23:00 +9°C° 0 mm 2 m/s 766 mmHg 61%

    Depois de amanhã, 23 Abril, Terça-feira

    Tempo Temperatura Precipitação Vento Pressão Humidade
    00:00 +9°C° 0 mm 2 m/s 766 mmHg 62%
    01:00 +8°C° 0 mm 2 m/s 767 mmHg 63%
    02:00 +9°C° 0 mm 1 m/s 767 mmHg 65%
    03:00 +8°C° 0 mm 1 m/s 767 mmHg 66%
    04:00 +8°C° 0 mm 1 m/s 767 mmHg 67%
    05:00 +8°C° 0 mm 1 m/s 767 mmHg 69%
    06:00 +10°C° 0 mm 1 m/s 768 mmHg 63%
    07:00 +12°C° 0 mm 1 m/s 768 mmHg 56%
    08:00 +14°C° 0 mm 1 m/s 768 mmHg 50%
    09:00 +15°C° 0 mm 1 m/s 768 mmHg 45%
    10:00 +18°C° 0 mm 1 m/s 768 mmHg 39%
    11:00 +18°C° 0 mm 2 m/s 768 mmHg 33%
    12:00 +19°C° 0 mm 2 m/s 767 mmHg 32%
    13:00 +19°C° 0 mm 2 m/s 767 mmHg 31%
    14:00 +21°C° 0 mm 1 m/s 767 mmHg 30%
    15:00 +21°C° 0 mm 1 m/s 767 mmHg 31%
    16:00 +20°C° 0 mm 1 m/s 766 mmHg 31%
    17:00 +20°C° 0 mm 1 m/s 766 mmHg 32%
    18:00 +18°C° 0 mm 1 m/s 766 mmHg 37%
    19:00 +15°C° 0 mm 1 m/s 766 mmHg 43%
    20:00 +13°C° 0 mm 1 m/s 766 mmHg 48%
    21:00 +12°C° 0 mm 1 m/s 766 mmHg 50%
    22:00 +12°C° 0 mm 1 m/s 767 mmHg 52%
    23:00 +11°C° 0 mm 1 m/s 767 mmHg 54%

    24 Abril, Quarta-feira

    Tempo Temperatura Precipitação Vento Pressão Humidade
    00:00 +10°C° 0 mm 1 m/s 767 mmHg 56%
    01:00 +10°C° 0 mm 1 m/s 767 mmHg 59%
    02:00 +9°C° 0 mm 1 m/s 767 mmHg 61%
    03:00 +9°C° 0 mm 1 m/s 767 mmHg 63%
    04:00 +9°C° 0 mm 1 m/s 767 mmHg 64%
    05:00 +8°C° 0 mm 1 m/s 767 mmHg 66%
    06:00 +11°C° 0 mm 1 m/s 767 mmHg 60%
    07:00 +13°C° 0 mm 1 m/s 768 mmHg 54%
    08:00 +15°C° 0 mm 1 m/s 768 mmHg 48%
    09:00 +18°C° 0 mm 1 m/s 767 mmHg 43%
    10:00 +18°C° 0 mm 2 m/s 767 mmHg 38%
    11:00 +20°C° 0 mm 2 m/s 767 mmHg 32%
    12:00 +20°C° 0 mm 2 m/s 767 mmHg 32%
    13:00 +20°C° 0 mm 2 m/s 766 mmHg 31%
    14:00 +21°C° 0 mm 2 m/s 766 mmHg 30%
    15:00 +21°C° 0 mm 2 m/s 766 mmHg 31%
    16:00 +21°C° 0 mm 2 m/s 765 mmHg 32%
    17:00 +20°C° 0 mm 2 m/s 765 mmHg 34%
    18:00 +18°C° 0 mm 2 m/s 765 mmHg 41%
    19:00 +16°C° 0 mm 2 m/s 765 mmHg 47%
    20:00 +14°C° 0 mm 1 m/s 765 mmHg 54%
    21:00 +13°C° 0 mm 2 m/s 765 mmHg 57%
    22:00 +13°C° 0 mm 2 m/s 765 mmHg 60%
    23:00 +12°C° 0 mm 2 m/s 765 mmHg 63%

    25 Abril, Quinta-feira

    Tempo Temperatura Precipitação Vento Pressão Humidade
    00:00 +10°C° 0 mm 2 m/s 765 mmHg 65%
    01:00 +10°C° 0 mm 2 m/s 765 mmHg 66%
    02:00 +9°C° 0 mm 2 m/s 765 mmHg 67%
    03:00 +9°C° 0 mm 2 m/s 765 mmHg 68%
    04:00 +9°C° 0 mm 2 m/s 765 mmHg 69%
    05:00 +8°C° 0 mm 2 m/s 765 mmHg 71%
    06:00 +10°C° 0 mm 3 m/s 765 mmHg 65%
    07:00 +12°C° 0 mm 3 m/s 764 mmHg 59%
    08:00 +14°C° 0 mm 3 m/s 764 mmHg 53%
    09:00 +17°C° 0 mm 4 m/s 764 mmHg 47%
    10:00 +18°C° 0 mm 4 m/s 764 mmHg 42%
    11:00 +20°C° 0 mm 5 m/s 763 mmHg 37%
    12:00 +20°C° 0 mm 5 m/s 763 mmHg 36%
    13:00 +21°C° 0 mm 5 m/s 763 mmHg 35%
    14:00 +21°C° 0 mm 5 m/s 762 mmHg 33%
    15:00 +21°C° 0 mm 4 m/s 762 mmHg 36%
    16:00 +20°C° 0 mm 3 m/s 761 mmHg 39%
    17:00 +20°C° 0 mm 3 m/s 761 mmHg 42%
    18:00 +18°C° 0 mm 3 m/s 761 mmHg 47%
    19:00 +17°C° 0 mm 3 m/s 760 mmHg 52%
    20:00 +15°C° 0 mm 2 m/s 760 mmHg 57%
    21:00 +15°C° 0 mm 2 m/s 760 mmHg 59%
    22:00 +13°C° 0 mm 3 m/s 760 mmHg 61%
    23:00 +13°C° 0 mm 3 m/s 760 mmHg 63%

    26 Abril, Sexta-feira

    Tempo Temperatura Precipitação Vento Pressão Humidade
    00:00 +12°C° 0 mm 3 m/s 760 mmHg 65%
    01:00 +12°C° 0 mm 3 m/s 759 mmHg 67%
    02:00 +11°C° 0 mm 3 m/s 759 mmHg 70%
    03:00 +11°C° 0 mm 3 m/s 759 mmHg 72%
    04:00 +10°C° 0 mm 3 m/s 758 mmHg 74%
    05:00 +10°C° 0 mm 3 m/s 758 mmHg 75%
    06:00 +12°C° 0 mm 3 m/s 758 mmHg 70%
    07:00 +13°C° 0 mm 3 m/s 758 mmHg 65%
    08:00 +16°C° 0 mm 3 m/s 757 mmHg 59%
    09:00 +18°C° 0 mm 4 m/s 757 mmHg 54%
    10:00 +19°C° 0 mm 4 m/s 757 mmHg 50%
    11:00 +21°C° 0 mm 4 m/s 756 mmHg 45%
    12:00 +22°C° 0 mm 4 m/s 756 mmHg 44%
    13:00 +22°C° 0 mm 4 m/s 755 mmHg 42%
    14:00 +23°C° 0 mm 4 m/s 755 mmHg 41%
    15:00 +23°C° 0 mm 4 m/s 754 mmHg 42%
    16:00 +24°C° 0 mm 3 m/s 754 mmHg 43%
    17:00 +22°C° 0 mm 3 m/s 753 mmHg 44%
    18:00 +21°C° 0 mm 2 m/s 753 mmHg 51%
    19:00 +19°C° 0 mm 2 m/s 753 mmHg 59%
    20:00 +18°C° 0 mm 1 m/s 753 mmHg 66%
    21:00 +16°C° 0 mm 1 m/s 753 mmHg 69%
    22:00 +15°C° 0 mm 1 m/s 752 mmHg 72%
    23:00 +14°C° 0 mm 1 m/s 752 mmHg 76%
    Mostrar mais